Location: Newark
(25.0000°N, 73.5000°E)
Time: 00:44:11
(UTC+00:00)

Transit 2A Rocket - All Passes

Search period start: 31 July 2021 00:00
Search period end: 10 August 2021 00:00
Orbit: 589 x 913 km, 66.7° (Epoch: 30 July)

Date Brightness Start Highest point End Pass type
(mag) Time Alt. Az. Time Alt. Az. Time Alt. Az.
31 Jul - 07:47:23 10° SSE 07:50:31 20° ESE 07:53:45 10° ENE daylight
31 Jul - 09:29:27 10° WSW 09:32:50 22° WNW 09:36:21 10° N daylight
31 Jul - 18:19:00 10° N 18:24:24 40° ENE 18:30:01 10° SE visible
31 Jul - 20:02:16 10° WNW 20:06:44 22° WSW 20:11:19 10° SSW visible
01 Aug - 08:45:58 10° SW 08:50:05 46° WNW 08:54:25 10° N daylight
01 Aug - 17:37:10 10° N 17:41:37 22° ENE 17:46:12 10° ESE visible
01 Aug - 19:18:47 10° NW 19:24:15 42° WSW 19:29:55 10° S visible
02 Aug - 08:03:13 10° SSW 08:07:28 78° ESE 08:11:57 10° NNE daylight
02 Aug - 16:56:27 10° NNE 16:58:43 12° ENE 17:01:00 10° E visible
02 Aug - 18:35:51 10° NNW 18:41:42 77° WSW 18:47:46 10° SSE visible
03 Aug - 07:21:08 10° S 07:24:59 33° ESE 07:28:59 10° NE daylight
03 Aug - 09:05:13 10° W 09:07:35 14° WNW 09:10:00 10° NNW daylight
03 Aug - 17:53:20 10° NNW 17:59:04 59° ENE 18:05:03 10° SE visible
03 Aug - 19:38:05 10° WNW 19:41:15 15° WSW 19:44:27 10° SW night (unlit)
04 Aug - 06:40:04 10° SE 06:42:35 15° ESE 06:45:08 10° ENE daylight
04 Aug - 08:21:00 10° WSW 08:24:44 28° WNW 08:28:40 10° N daylight
04 Aug - 17:11:12 10° N 17:16:22 32° ENE 17:21:43 10° SE visible
04 Aug - 18:53:52 10° NW 18:58:49 28° WSW 19:03:53 10° SSW visible
05 Aug - 07:37:48 10° SSW 07:42:03 62° WNW 07:46:31 10° NNE daylight
05 Aug - 16:29:37 10° NNE 16:33:33 18° ENE 16:37:35 10° ESE visible
05 Aug - 18:10:37 10° NW 18:16:18 52° WSW 18:22:11 10° S visible
06 Aug - 06:55:17 10° S 06:59:28 57° ESE 07:03:53 10° NNE daylight
06 Aug - 17:27:50 10° NNW 17:33:44 86° ENE 17:39:49 10° SSE visible
07 Aug - 06:13:29 10° SSE 06:17:01 25° ESE 06:20:41 10° NE daylight
07 Aug - 07:56:24 10° WSW 07:59:27 18° WNW 08:02:37 10° NNW daylight
07 Aug - 16:45:27 10° N 16:51:05 47° ENE 16:56:55 10° SE visible
07 Aug - 18:29:19 10° WNW 18:33:20 19° WSW 18:37:25 10° SSW visible
08 Aug - 05:33:16 10° ESE 05:34:39 11° ESE 05:36:03 10° E daylight
08 Aug - 07:12:39 10° SW 07:16:40 37° WNW 07:20:54 10° N daylight
08 Aug - 16:03:28 10° N 16:08:20 27° ENE 16:13:20 10° ESE visible
08 Aug - 17:45:34 10° NW 17:50:53 35° WSW 17:56:20 10° S visible
09 Aug - 06:29:42 10° SSW 06:34:00 84° WNW 06:38:34 10° NNE daylight
09 Aug - 15:22:14 10° NNE 15:25:28 15° ENE 15:28:44 10° E visible
09 Aug - 17:02:31 10° NNW 17:08:21 65° WSW 17:14:22 10° SSE visible
